COSMOS 2251 DEB, 34321

Orbit data source: Space-Track

COSMOS 2251 DEB, 34321 is space debris in LEO originally from a launch on Wed, 16 Jun 1993 UTC launched from the Plesetsk Missile And Space Complex (PKMTR). The debris from Iridium 33, an American commercial communications satellite, has been tracked extensively since its accidental collision with the defunct Russian satellite Cosmos 2251 in 2009. This event, occurring at high speed in low Earth orbit (LEO), generated thousands of pieces of space debris, significantly increasing the risk of further collisions. The Iridium 33 debris cloud has impacted space traffic management and orbital debris mitigation strategies, making it a subject of ongoing study in space situational awareness.

Loading next visibility...
Identifier
34321, 1993-036NT
Orbit
LEO
Country
Flag of CISCIS
Related business
Manufacturer
Unknown
Mission
Spacecraft
Bus & Motor
Unknown
Mass
Unknown
Launch date (UTC)
1993-06-16 (33 years ago)
Launch vehicle
Unknown
Launch site
Plesetsk Missile And Space Complex (PKMTR)
Object type
Payload
Rocket body
Debris
Shape & HBR
Unknown shape, 0.1 m
Radar Cross Section
Medium (>0.1 m² and <1 m²)

Expand to show TLE details & history
Last TLE update: 16 hours ago

TLE from 16 hours ago
0 COSMOS 2251 DEB
1 34321U 93036NT  26207.10353506  .00001613  00000-0  41509-3 0  9997
2 34321  74.0280  92.6118 0015268 169.2398 315.4239 14.50902094917540
Epoch: 2026-07-26T02:29Z
TLE epoch observation values (Epoch: 2026-07-26T02:29:05.429Z)
Latitude
52.47513°
Longitude
-90.22411°
Altitude
723.171 km
Speed
7.503 km/s
True Right ascension
16h 43m 25s
True Declination
52° 18' 29"
Sunlit
Object was in daylight at epoch
Visualization orbit readout
Latitude
Unknown
Longitude
Unknown
Altitude
Unknown
Speed
Unknown
Apparent Right ascension
Unknown
Apparent Declination
Unknown
Sunlit
N/A
Visualization observer readout
Local Sidereal Time
07:55:06
Azimuth
Unknown
Elevation
Unknown
Doppler factor
Unknown
Orbital elements
Apogee altitude
731.15 km
Perigee altitude
709.474 km
Semi-major axis
7,098.449 km
Eccentricity
0.00153
Inclination
74.028°
RAAN
92.6118°
Arg. of periapsis
169.2398°
True anomaly
315.30094°
Mean anomaly
315.4239°
Eccentric anomaly
315.36244°
Mean motion
3.62909 °/min
Orbital period
99.2 mins
BSTAR
0.00041509

Documentation

Showing up to 5 results
|